Time,TemperatureF,DewpointF,PressureIn,WindDirection,WindDirectionDegrees,WindSpeedMPH,WindSpeedGustMPH,Humidity,HourlyPrecipIn,Conditions,Clouds,dailyrainin,SoftwareType,DateUTC
2013-03-24 00:02:00,33.0,27.0,30.03,NE,55,12.0,14.0,77,0.00,,,0.00,,2013-03-24 05:02:00,
2013-03-24 00:12:00,33.0,27.0,30.03,NE,55,12.0,14.0,77,0.00,,,0.00,,2013-03-24 05:12:00,
2013-03-24 00:22:00,33.0,27.0,30.03,ENE,69,10.0,14.0,79,0.00,,,0.00,,2013-03-24 05:22:00,
2013-03-24 00:32:00,33.0,28.0,30.03,ENE,74,5.0,12.0,80,0.00,,,0.00,,2013-03-24 05:32:00,
2013-03-24 00:42:00,33.0,28.0,30.03,ENE,74,5.0,12.0,80,0.00,,,0.00,,2013-03-24 05:42:00,
2013-03-24 00:52:00,33.0,28.0,30.03,ESE,102,7.0,15.0,82,0.00,,,0.00,,2013-03-24 05:52:00,
2013-03-24 01:02:00,32.0,28.0,30.02,ENE,61,14.0,15.0,84,0.00,,,0.00,,2013-03-24 06:02:00,
2013-03-24 01:12:00,32.0,28.0,30.02,ENE,61,14.0,15.0,84,0.00,,,0.00,,2013-03-24 06:12:00,
2013-03-24 01:22:00,32.0,28.0,30.02,ENE,75,14.0,19.0,86,0.00,,,0.00,,2013-03-24 06:22:00,
2013-03-24 01:32:00,31.0,28.0,30.01,East,88,8.0,17.0,87,0.00,,,0.00,,2013-03-24 06:32:00,
2013-03-24 01:42:00,31.0,28.0,30.01,East,88,8.0,17.0,87,0.00,,,0.00,,2013-03-24 06:42:00,
2013-03-24 01:52:00,31.0,29.0,30.01,ENE,57,15.0,17.0,91,0.00,,,0.00,,2013-03-24 06:52:00,
2013-03-24 02:02:00,31.0,29.0,30.01,ENE,57,15.0,17.0,91,0.00,,,0.00,,2013-03-24 07:02:00,
2013-03-24 02:12:00,31.0,29.0,30.01,ENE,57,15.0,17.0,91,0.00,,,0.00,,2013-03-24 07:12:00,
2013-03-24 02:22:00,31.0,28.0,29.99,ENE,57,15.0,17.0,90,0.00,,,0.00,,2013-03-24 07:22:00,
2013-03-24 02:32:00,31.0,28.0,29.99,NE,50,14.0,16.0,90,0.00,,,0.00,,2013-03-24 07:32:00,
2013-03-24 02:42:00,31.0,28.0,29.99,NE,50,14.0,16.0,90,0.00,,,0.00,,2013-03-24 07:42:00,
2013-03-24 02:52:00,31.0,28.0,30.00,East,85,8.0,9.0,90,0.00,,,0.00,,2013-03-24 07:52:00,
2013-03-24 03:03:00,31.0,28.0,29.99,East,84,7.0,11.0,90,0.00,,,0.00,,2013-03-24 08:03:00,
2013-03-24 03:12:00,31.0,28.0,29.99,East,84,7.0,11.0,90,0.00,,,0.00,,2013-03-24 08:12:00,
2013-03-24 03:22:00,31.0,28.0,29.99,East,90,3.0,9.0,90,0.00,,,0.00,,2013-03-24 08:22:00,
2013-03-24 03:32:00,31.0,29.0,29.98,East,86,6.0,10.0,91,0.00,,,0.00,,2013-03-24 08:32:00,
2013-03-24 03:42:00,31.0,29.0,29.98,East,86,6.0,10.0,91,0.00,,,0.00,,2013-03-24 08:42:00,
2013-03-24 03:52:00,31.0,29.0,29.97,East,90,3.0,6.0,92,0.00,,,0.00,,2013-03-24 08:52:00,
2013-03-24 04:02:00,31.0,29.0,29.97,East,90,3.0,6.0,92,0.00,,,0.00,,2013-03-24 09:02:00,
2013-03-24 04:12:00,31.0,29.0,29.97,East,90,3.0,6.0,92,0.00,,,0.00,,2013-03-24 09:12:00,
2013-03-24 04:22:00,30.0,28.0,29.95,ENE,69,5.0,8.0,94,0.00,,,0.00,,2013-03-24 09:22:00,
2013-03-24 04:33:00,30.0,28.0,29.94,ENE,61,7.0,8.0,94,0.00,,,0.00,,2013-03-24 09:33:00,
2013-03-24 04:43:00,30.0,28.0,29.94,ENE,61,7.0,8.0,94,0.00,,,0.00,,2013-03-24 09:43:00,
2013-03-24 04:52:00,30.0,29.0,29.93,NE,36,7.0,8.0,95,0.00,,,0.00,,2013-03-24 09:52:00,
2013-03-24 05:03:00,30.0,29.0,29.92,NE,51,9.0,10.0,95,0.00,,,0.00,,2013-03-24 10:03:00,
2013-03-24 05:12:00,30.0,29.0,29.92,NE,51,9.0,10.0,95,0.00,,,0.00,,2013-03-24 10:12:00,
2013-03-24 05:22:00,30.0,29.0,29.91,East,100,5.0,10.0,95,0.00,,,0.00,,2013-03-24 10:22:00,
2013-03-24 05:32:00,30.0,29.0,29.90,NE,55,11.0,16.0,96,0.00,,,0.00,,2013-03-24 10:32:00,
2013-03-24 05:42:00,30.0,29.0,29.90,NE,55,11.0,16.0,96,0.00,,,0.00,,2013-03-24 10:42:00,
2013-03-24 05:52:00,30.0,28.0,29.90,ENE,65,15.0,17.0,94,0.00,,,0.00,,2013-03-24 10:52:00,
2013-03-24 06:03:00,30.0,28.0,29.90,NE,46,12.0,16.0,94,0.00,,,0.00,,2013-03-24 11:03:00,
2013-03-24 06:12:00,30.0,28.0,29.90,NE,46,12.0,16.0,94,0.00,,,0.00,,2013-03-24 11:12:00,
2013-03-24 06:22:00,30.0,29.0,29.92,NE,46,8.0,13.0,95,0.00,,,0.00,,2013-03-24 11:22:00,
2013-03-24 06:32:00,30.0,29.0,29.91,NE,38,11.0,12.0,95,0.00,,,0.00,,2013-03-24 11:32:00,
2013-03-24 06:42:00,30.0,29.0,29.91,NE,38,11.0,12.0,95,0.00,,,0.00,,2013-03-24 11:42:00,
2013-03-24 06:52:00,30.0,29.0,29.90,NE,34,10.0,13.0,95,0.00,,,0.00,,2013-03-24 11:52:00,
2013-03-24 07:02:00,30.0,29.0,29.89,NE,42,13.0,15.0,95,0.00,,,0.00,,2013-03-24 12:02:00,
2013-03-24 07:12:00,30.0,29.0,29.89,NE,42,13.0,15.0,95,0.00,,,0.00,,2013-03-24 12:12:00,
2013-03-24 07:22:00,30.0,29.0,29.88,NE,34,12.0,14.0,96,0.00,,,0.00,,2013-03-24 12:22:00,
2013-03-24 07:32:00,30.0,29.0,29.88,NNE,32,17.0,17.0,96,0.00,,,0.00,,2013-03-24 12:32:00,
2013-03-24 07:42:00,30.0,29.0,29.88,NNE,32,17.0,17.0,96,0.00,,,0.00,,2013-03-24 12:42:00,
2013-03-24 07:52:00,30.0,29.0,29.87,NNE,21,12.0,16.0,96,0.00,,,0.00,,2013-03-24 12:52:00,
2013-03-24 08:02:00,30.0,29.0,29.86,NNE,32,13.0,16.0,96,0.00,,,0.00,,2013-03-24 13:02:00,
2013-03-24 08:12:00,30.0,29.0,29.86,NNE,32,13.0,16.0,96,0.00,,,0.00,,2013-03-24 13:12:00,
2013-03-24 08:22:00,30.0,29.0,29.86,NNE,30,13.0,19.0,96,0.00,,,0.00,,2013-03-24 13:22:00,
2013-03-24 08:32:00,30.0,29.0,29.85,NE,34,11.0,19.0,96,0.00,,,0.00,,2013-03-24 13:32:00,
2013-03-24 08:42:00,30.0,29.0,29.85,NE,34,11.0,19.0,96,0.00,,,0.00,,2013-03-24 13:42:00,
2013-03-24 08:52:00,30.0,29.0,29.81,NNE,25,20.0,23.0,96,0.00,,,0.00,,2013-03-24 13:52:00,
2013-03-24 09:02:00,30.0,29.0,29.82,NE,41,19.0,24.0,97,0.00,,,0.00,,2013-03-24 14:02:00,
2013-03-24 09:22:00,31.0,30.0,29.80,NNE,24,16.0,24.0,96,0.00,,,0.00,,2013-03-24 14:22:00,
2013-03-24 09:32:00,31.0,30.0,29.80,NNE,28,21.0,25.0,96,0.00,,,0.00,,2013-03-24 14:32:00,
2013-03-24 09:42:00,31.0,30.0,29.80,NNE,28,21.0,25.0,96,0.00,,,0.00,,2013-03-24 14:42:00,
2013-03-24 09:52:00,31.0,30.0,29.81,NE,45,14.0,22.0,96,0.00,,,0.00,,2013-03-24 14:52:00,
2013-03-24 10:02:00,31.0,30.0,29.80,NE,35,15.0,21.0,96,0.00,,,0.00,,2013-03-24 15:02:00,
2013-03-24 10:12:00,31.0,30.0,29.80,NE,35,15.0,21.0,96,0.00,,,0.00,,2013-03-24 15:12:00,
2013-03-24 10:22:00,31.0,30.0,29.80,NE,38,13.0,18.0,96,0.00,,,0.00,,2013-03-24 15:22:00,
2013-03-24 10:33:00,31.0,30.0,29.80,NE,45,14.0,15.0,96,0.00,,,0.00,,2013-03-24 15:33:00,
2013-03-24 10:43:00,31.0,30.0,29.80,NE,45,14.0,15.0,96,0.00,,,0.00,,2013-03-24 15:43:00,
2013-03-24 10:53:00,32.0,31.0,29.80,NE,34,15.0,20.0,95,0.00,,,0.00,,2013-03-24 15:53:00,
2013-03-24 11:03:00,32.0,31.0,29.80,NNE,25,18.0,20.0,95,0.00,,,0.00,,2013-03-24 16:03:00,
2013-03-24 11:12:00,32.0,31.0,29.80,NNE,25,18.0,20.0,95,0.00,,,0.00,,2013-03-24 16:12:00,
2013-03-24 11:23:00,32.0,30.0,29.79,NNE,22,13.0,18.0,94,0.00,,,0.00,,2013-03-24 16:23:00,
2013-03-24 11:33:00,32.0,30.0,29.80,North,5,9.0,17.0,93,0.00,,,0.00,,2013-03-24 16:33:00,
2013-03-24 11:42:00,32.0,30.0,29.80,North,5,9.0,17.0,93,0.00,,,0.00,,2013-03-24 16:42:00,
2013-03-24 11:52:00,33.0,31.0,29.80,NNE,24,14.0,17.0,93,0.00,,,0.00,,2013-03-24 16:52:00,
2013-03-24 12:02:00,33.0,31.0,29.80,NNE,31,11.0,16.0,94,0.00,,,0.00,,2013-03-24 17:02:00,
2013-03-24 12:12:00,33.0,31.0,29.80,NNE,31,11.0,16.0,94,0.00,,,0.00,,2013-03-24 17:12:00,
2013-03-24 12:23:00,33.0,32.0,29.79,North,360,14.0,18.0,95,0.00,,,0.00,,2013-03-24 17:23:00,
2013-03-24 12:32:00,33.0,32.0,29.78,NNE,23,12.0,17.0,95,0.00,,,0.00,,2013-03-24 17:32:00,
2013-03-24 12:42:00,33.0,32.0,29.78,NNE,23,12.0,17.0,95,0.00,,,0.00,,2013-03-24 17:42:00,
2013-03-24 12:53:00,33.0,32.0,29.77,North,360,15.0,19.0,95,0.00,,,0.00,,2013-03-24 17:53:00,
2013-03-24 13:02:00,33.0,32.0,29.76,North,5,17.0,20.0,95,0.00,,,0.00,,2013-03-24 18:02:00,
2013-03-24 13:12:00,33.0,32.0,29.76,North,5,17.0,20.0,95,0.00,,,0.00,,2013-03-24 18:12:00,
2013-03-24 13:22:00,33.0,32.0,29.75,North,11,19.0,22.0,95,0.00,,,0.00,,2013-03-24 18:22:00,
2013-03-24 13:32:00,32.0,31.0,29.74,NNE,18,16.0,23.0,96,0.00,,,0.00,,2013-03-24 18:32:00,
2013-03-24 13:43:00,32.0,31.0,29.74,NNE,18,16.0,23.0,96,0.00,,,0.00,,2013-03-24 18:43:00,
2013-03-24 13:52:00,33.0,32.0,29.74,NNW,334,13.0,20.0,97,0.00,,,0.00,,2013-03-24 18:52:00,
2013-03-24 14:02:00,33.0,32.0,29.74,NNE,20,18.0,23.0,97,0.00,,,0.00,,2013-03-24 19:02:00,
2013-03-24 14:12:00,33.0,32.0,29.74,NNE,20,18.0,23.0,97,0.00,,,0.00,,2013-03-24 19:12:00,
2013-03-24 14:22:00,33.0,32.0,29.73,North,355,22.0,26.0,97,0.00,,,0.00,,2013-03-24 19:22:00,
2013-03-24 14:32:00,33.0,32.0,29.72,NNE,26,18.0,25.0,97,0.00,,,0.00,,2013-03-24 19:32:00,
2013-03-24 14:42:00,33.0,32.0,29.72,NNE,26,18.0,25.0,97,0.00,,,0.00,,2013-03-24 19:42:00,
2013-03-24 14:53:00,32.0,31.0,29.71,NNE,21,16.0,27.0,97,0.00,,,0.00,,2013-03-24 19:53:00,
2013-03-24 15:02:00,32.0,31.0,29.71,NNE,21,17.0,27.0,97,0.00,,,0.00,,2013-03-24 20:02:00,
2013-03-24 15:12:00,32.0,31.0,29.71,NNE,21,17.0,27.0,97,0.00,,,0.00,,2013-03-24 20:12:00,
2013-03-24 15:22:00,32.0,31.0,29.70,NNE,17,19.0,23.0,97,0.00,,,0.00,,2013-03-24 20:22:00,
2013-03-24 15:32:00,33.0,32.0,29.70,North,355,15.0,21.0,98,0.00,,,0.00,,2013-03-24 20:32:00,
2013-03-24 15:42:00,33.0,32.0,29.70,North,355,15.0,21.0,98,0.00,,,0.00,,2013-03-24 20:42:00,
2013-03-24 15:53:00,33.0,32.0,29.70,ENE,57,13.0,24.0,97,0.01,,,0.01,,2013-03-24 20:53:00,
2013-03-24 16:02:00,33.0,32.0,29.70,North,349,21.0,24.0,97,0.01,,,0.01,,2013-03-24 21:02:00,
2013-03-24 16:12:00,33.0,32.0,29.70,North,349,21.0,24.0,97,0.01,,,0.01,,2013-03-24 21:12:00,
2013-03-24 16:22:00,33.0,32.0,29.70,North,355,19.0,27.0,97,0.01,,,0.01,,2013-03-24 21:22:00,
2013-03-24 16:33:00,33.0,32.0,29.71,North,5,16.0,26.0,97,0.01,,,0.01,,2013-03-24 21:33:00,
2013-03-24 16:43:00,33.0,32.0,29.71,North,5,16.0,26.0,97,0.01,,,0.01,,2013-03-24 21:43:00,
2013-03-24 16:53:00,33.0,32.0,29.70,North,355,23.0,27.0,97,0.00,,,0.01,,2013-03-24 21:53:00,
2013-03-24 17:02:00,33.0,32.0,29.71,North,355,20.0,26.0,97,0.01,,,0.02,,2013-03-24 22:02:00,
2013-03-24 17:13:00,33.0,32.0,29.71,North,355,20.0,26.0,97,0.01,,,0.02,,2013-03-24 22:13:00,
2013-03-24 17:23:00,32.0,32.0,29.72,North,355,11.0,28.0,98,0.01,,,0.02,,2013-03-24 22:23:00,
2013-03-24 17:33:00,32.0,32.0,29.72,NNW,330,15.0,25.0,98,0.01,,,0.02,,2013-03-24 22:33:00,
2013-03-24 17:42:00,32.0,32.0,29.72,NNW,330,15.0,25.0,98,0.01,,,0.02,,2013-03-24 22:42:00,
2013-03-24 17:52:00,32.0,32.0,29.72,North,5,16.0,25.0,98,0.01,,,0.02,,2013-03-24 22:52:00,
2013-03-24 18:02:00,32.0,32.0,29.73,NNW,337,13.0,22.0,98,0.00,,,0.02,,2013-03-24 23:02:00,
2013-03-24 18:12:00,32.0,32.0,29.73,NNW,337,13.0,22.0,98,0.00,,,0.02,,2013-03-24 23:12:00,
2013-03-24 18:22:00,31.0,31.0,29.74,NNE,16,18.0,27.0,98,0.00,,,0.02,,2013-03-24 23:22:00,
2013-03-24 18:32:00,31.0,31.0,29.74,North,355,15.0,26.0,98,0.00,,,0.02,,2013-03-24 23:32:00,
2013-03-24 18:42:00,31.0,31.0,29.74,North,355,15.0,26.0,98,0.00,,,0.02,,2013-03-24 23:42:00,
2013-03-24 18:53:00,31.0,31.0,29.75,NNW,327,15.0,25.0,98,0.00,,,0.02,,2013-03-24 23:53:00,
2013-03-24 19:02:00,31.0,31.0,29.75,North,5,18.0,25.0,98,0.00,,,0.02,,2013-03-25 00:02:00,
2013-03-24 19:12:00,31.0,31.0,29.75,North,5,18.0,25.0,98,0.00,,,0.02,,2013-03-25 00:12:00,
2013-03-24 19:22:00,31.0,31.0,29.76,North,355,17.0,26.0,98,0.00,,,0.02,,2013-03-25 00:22:00,
2013-03-24 19:32:00,31.0,31.0,29.76,North,360,18.0,25.0,98,0.00,,,0.02,,2013-03-25 00:32:00,
2013-03-24 19:42:00,31.0,31.0,29.76,North,360,18.0,25.0,98,0.00,,,0.02,,2013-03-25 00:42:00,
2013-03-24 19:53:00,31.0,31.0,29.77,NNE,33,19.0,24.0,98,0.00,,,0.02,,2013-03-25 00:53:00,
2013-03-24 20:02:00,31.0,31.0,29.77,NNW,333,17.0,27.0,98,0.00,,,0.02,,2013-03-25 01:02:00,
2013-03-24 20:12:00,31.0,31.0,29.77,NNW,333,17.0,27.0,98,0.00,,,0.02,,2013-03-25 01:12:00,
2013-03-24 20:22:00,30.0,29.0,29.77,NNW,331,23.0,26.0,98,0.00,,,0.02,,2013-03-25 01:22:00,
2013-03-24 20:32:00,30.0,29.0,29.77,NNW,344,20.0,24.0,98,0.00,,,0.02,,2013-03-25 01:32:00,
2013-03-24 20:42:00,30.0,29.0,29.77,NNW,344,20.0,24.0,98,0.00,,,0.02,,2013-03-25 01:42:00,
2013-03-24 20:52:00,30.0,29.0,29.78,NW,305,20.0,29.0,98,0.00,,,0.02,,2013-03-25 01:52:00,
2013-03-24 21:02:00,30.0,29.0,29.78,North,355,19.0,25.0,98,0.00,,,0.02,,2013-03-25 02:02:00,
2013-03-24 21:12:00,30.0,29.0,29.78,North,355,19.0,25.0,98,0.00,,,0.02,,2013-03-25 02:12:00,
2013-03-24 21:22:00,30.0,29.0,29.78,NNW,339,20.0,26.0,98,0.00,,,0.02,,2013-03-25 02:22:00,
2013-03-24 21:32:00,30.0,29.0,29.78,North,360,20.0,26.0,98,0.00,,,0.02,,2013-03-25 02:32:00,
2013-03-24 21:42:00,30.0,29.0,29.78,North,360,20.0,26.0,98,0.00,,,0.02,,2013-03-25 02:42:00,
2013-03-24 21:52:00,30.0,29.0,29.79,NNW,329,24.0,27.0,98,0.00,,,0.02,,2013-03-25 02:52:00,
2013-03-24 22:02:00,30.0,29.0,29.79,NNW,338,24.0,26.0,98,0.00,,,0.02,,2013-03-25 03:02:00,
2013-03-24 22:13:00,30.0,29.0,29.79,NNW,338,24.0,26.0,98,0.00,,,0.02,,2013-03-25 03:13:00,
2013-03-24 22:22:00,30.0,29.0,29.79,NNW,344,18.0,26.0,98,0.00,,,0.02,,2013-03-25 03:22:00,
2013-03-24 22:33:00,30.0,29.0,29.80,NNW,330,17.0,24.0,98,0.00,,,0.02,,2013-03-25 03:33:00,
2013-03-24 22:42:00,30.0,29.0,29.80,NNW,330,17.0,24.0,98,0.00,,,0.02,,2013-03-25 03:42:00,
2013-03-24 22:52:00,30.0,29.0,29.80,NNW,327,20.0,23.0,98,0.00,,,0.02,,2013-03-25 03:52:00,
2013-03-24 23:02:00,30.0,29.0,29.80,NNW,329,9.0,25.0,98,0.00,,,0.02,,2013-03-25 04:02:00,
2013-03-24 23:12:00,30.0,29.0,29.80,NNW,329,9.0,25.0,98,0.00,,,0.02,,2013-03-25 04:12:00,
2013-03-24 23:22:00,30.0,29.0,29.80,NNW,347,19.0,24.0,98,0.00,,,0.02,,2013-03-25 04:22:00,
2013-03-24 23:33:00,30.0,29.0,29.79,NNW,348,17.0,26.0,98,0.00,,,0.02,,2013-03-25 04:33:00,
2013-03-24 23:43:00,30.0,29.0,29.79,NNW,348,17.0,26.0,98,0.00,,,0.02,,2013-03-25 04:43:00,
2013-03-24 23:52:00,30.0,29.0,29.79,NNW,347,20.0,28.0,98,0.00,,,0.02,,2013-03-25 04:52:00,